Regional Weather Roundup
Issued by NWS

Home | Current Version | Previous Version | Text Only | Print | Product List | Glossary On
Versions: 1 2 3 4 5 6 7 8 9 10 11 12 13 14 15 16 17 18 19 20 21 22 23 24 25 26 27 28 29 30 31 32 33 34 35 36 37 38 39 40 41 42 43 44 45 46 47 48 49 50
000
ASUS43 KMPX 271010
RWRMN
WEATHER ROUNDUP FOR MINNESOTA
NATIONAL WEATHER SERVICE TWIN CITIES/CHANHASSEN MN
500 AM CDT THU JUN 27 2019


NOTE: "FAIR" INDICATES FEW OR NO CLOUDS BELOW 12,000 FEET WITH NO
SIGNIFICANT WEATHER AND/OR OBSTRUCTIONS TO VISIBILITY. N/A MEANS
CURRENT SKY AND/OR WEATHER CONDITIONS ARE NOT AVAILABLE.

MNZ060>063-068>070-271100-
   Twin Cities Metro

CITY           SKY/WX    TMP DP  RH WIND       PRES   REMARKS
TWIN CITIES    FAIR      70  60  70 SE5       30.07R
ST PAUL        FAIR      66  61  84 CALM      30.07R
CRYSTAL        FAIR      64  61  90 CALM      30.05R
BLAINE         FAIR      66  61  82 CALM      30.06R
LAKEVILLE      FAIR      63  63 100 CALM      30.07R
EDEN PRAIRIE   FAIR      69  60  73 CALM      30.05R
SOUTH ST PAUL  FAIR      66  60  82 CALM      30.07R
LAKE ELMO        N/A     64  59  82 CALM      30.09R
$$
MNZ001>005-007-008-013>017-022>024-027-028-271100-
   Northwest Minnesota

CITY           SKY/WX    TMP DP  RH WIND       PRES   REMARKS
BEMIDJI        FAIR      51  49  94 CALM      30.07S
HALLOCK        MOCLDY    57  54  88 SE3       30.04S
ROSEAU         FAIR      55  52  88 CALM        N/A
WARROAD        FAIR      57  54  88 CALM      30.07R
THIEF RVR FALL PTCLDY    57  51  80 E3        30.05S
CROOKSTON      MOCLDY    64  52  63 E5        30.02S
FOSSTON        MOCLDY    57  54  88 E5        30.05S
DETROIT LAKES  FAIR      64  55  72 NE3       30.06R
MOORHEAD       CLOUDY    66  57  72 E5        30.02R
PARK RAPIDS    FAIR      64  57  78 CALM      30.06R
$$
MNZ006-009>011-018-025>026-271100-
   North Central Minnesota

CITY           SKY/WX    TMP DP  RH WIND       PRES   REMARKS
BAUDETTE       MOCLDY    55  51  86 CALM      30.07R
FLAG ISLAND      N/A     61  55  82 CALM      30.06R
INTL FALLS     FAIR      47  47 100 S3        30.07R
WASKISH        FAIR      54  54 100 CALM      30.08R
BIG FORK       FAIR      48  46  93 CALM      30.14R
LONGVILLE      FAIR      57  57 100 CALM      30.07R
GRAND RAPIDS   FAIR      55  55 100 CALM      30.11R
CRANE LAKE     FAIR      46  46 100 CALM      30.10R
ORR            FAIR      50  46  87 CALM      30.07R
COOK           FAIR      48  48 100 CALM      30.09R
WALKER         FAIR      56  55  97 CALM      30.07R
$$
MNZ012-019>021-037-271100-
   Northeast Minnesota

CITY           SKY/WX    TMP DP  RH WIND       PRES   REMARKS
DULUTH         FAIR      64  55  72 W7        30.08R
ELY            FAIR      48  48 100 CALM      30.08R
HIBBING        FAIR      49  49 100 NW3       30.09R
EVELETH        MOCLDY    51  51  97 CALM      30.10R
DULUTH HARBOR  CLOUDY    66  54  63 SW5       30.07R
SILVER BAY     FAIR      52  48  87 CALM      30.06S
GRAND MARAIS     N/A     44  41  89 SW6       30.03R
G MARAIS ARPRT FAIR      59  46  63 W3        30.08S
$$
MNZ029>031-032-039>041-046>048-054>057-064-271100-
   West Central Minnesota

CITY           SKY/WX    TMP DP  RH WIND       PRES   REMARKS
FERGUS FALLS   FAIR      70 N/A N/A E3        30.02R
WHEATON        CLEAR     66  61  82 SE3       30.01F
MORRIS         CLEAR     66  64  94 SE5       29.96S
ALEXANDRIA     FAIR      67  59  75 SE5       30.06R
WADENA         FAIR      64  57  77 CALM      30.04S
GLENWOOD       FAIR      66  63  88 CALM      30.05R
APPLETON       CLEAR     72  63  73 SE3       29.99F
BENSON         CLEAR     68  64  88 S5        30.03S
ORTONVILLE     CLEAR     70  63  78 E3        29.99F
MADISON        CLEAR     70  64  83 E7        29.98F
WILLMAR        FAIR      68  63  83 SE3       30.06F
$$
MNZ033>034-036-042>043-049>051-058-059-271100-
   Central Minnesota

CITY           SKY/WX    TMP DP  RH WIND       PRES   REMARKS
ST CLOUD       FAIR      65  60  84 SE7       30.05R
SAUK CENTRE    FAIR      63  60  89 SE6       30.05R
PAYNESVILLE    FAIR      68  64  86 S3        30.06R
AITKIN         FAIR      55  54  94 N3        30.07R
BRAINERD       LGT RAIN  68  58  70 CALM      30.06R
STAPLES        FAIR      61  57  88 CALM      30.05R
LONG PRAIRIE   FAIR      66  59  77 CALM      30.05R
LITTLE FALLS   MOCLDY    68  59  73 SE5       30.06R
LITCHFIELD     FAIR      68  63  83 SE3       30.05F
BUFFALO        FAIR      65  59  79 MISG      30.07R
MAPLE LAKE       N/A     66  62  87 CALM      30.07R
HUTCHINSON     MOCLDY    65  62  89 CALM      30.07R
$$
MNZ037-044-045-052-053-271100-
   East Central Minnesota

CITY           SKY/WX    TMP DP  RH WIND       PRES   REMARKS
PRINCETON      FAIR      64  59  82 CALM      30.06S
MORA           FAIR      59  57  94 CALM      30.08S
CAMBRIDGE      FAIR      70  55  60 SE3       30.06S
RUSH CITY      FAIR      60  56  88 CALM      30.07R
MOOSE LAKE     FAIR      59  55  88 NE3       30.06R
HINCKLEY       FAIR      59  59 100 CALM      30.07S
CLOQUET        CLOUDY    64  55  72 W5        30.10R
MCGREGOR       MOCLDY    59  57  94 CALM      30.08R
$$
MNZ071>073-080-081-089-090-097-098-271100-
   Southwest Minnesota

CITY           SKY/WX    TMP DP  RH WIND       PRES   REMARKS
MONTEVIDEO     CLEAR     68  61  77 S7        30.01F
GRANITE FALLS  CLEAR     69  65  84 E5        30.02F
CANBY          PTCLDY    74  64  71 S7        29.98F
MARSHALL       PTCLDY    71  64  78 S6        29.99F
REDWOOD FALLS  CLEAR     67  64  90 E3        30.03R
OLIVIA         CLEAR     68  63  83 E5        30.03S
PIPESTONE      PTCLDY    70  64  83 S8        30.01F
WINDOM         CLEAR     66  63  88 CALM      30.04S
WORTHINGTON    CLEAR     68  64  87 SE5       30.03F
JACKSON        PTCLDY    66  63  88 S3        30.06R
SLAYTON        MOCLDY    69  64  84 SE5       30.04F
$$
MNZ065>067-074>077-082>085-091>093-271100-
   South Central Minnesota

CITY           SKY/WX    TMP DP  RH WIND       PRES   REMARKS
MANKATO        FAIR      67  64  90 SE6       30.07R
NEW ULM        CLEAR     66  63  88 E3        30.05R
FAIRMONT       CLEAR     66  63  90 SE6       30.06R
GLENCOE        FAIR      65  66 100 CALM      30.06R
WASECA         FAIR      63  59  88 E3        30.09R
ALBERT LEA     FAIR      64  64 100 S5        30.09R
$$
MNZ078>079-086>088-094>096-271100-
   Southeast Minnesota

CITY           SKY/WX    TMP DP  RH WIND       PRES   REMARKS
ROCHESTER      FAIR      63  58  83 SE6       30.10R
RED WING       FAIR      64  55  72 CALM      30.07R
STANTON        FAIR      61  58  90 CALM      30.06R
DODGE CENTER   FAIR      63  59  88 CALM      30.09R
WINONA         FAIR      61  61 100 CALM      30.10R
AUSTIN         FAIR      66  59  77 CALM      30.10R
PRESTON        FAIR      64  58  80 SE5       30.12R
$$
ABBREVIATIONS USED IN REMARKS
   TC - TEMPERATURES IN CELSIUS
  WCI - WIND CHILL INDEX
   HX - HEAT INDEX
  VSB - VISIBILITY
$$




USA.gov is the U.S. government's official web portal to all federal, state and local government web resources and services.